Fort Rucker / Ozark, AL

9:13 AM CDT on March 26, 2017 (GMT -0500)
Fort Rucker / Ozark

Weather History for KHEY - July, 2013

Change the Weather History Date:

Thursday, July 11, 2013

  Actual Average (KOZR) Record (KOZR)
Temperature  
Mean Temperature 78 °F -  
Max Temperature 84 °F 87 °F 96 °F (2006)
Min Temperature 71 °F 69 °F 69 °F (2001)
Cooling Degree Days 12    
Growing Degree Days 28 (Base 50)    
Moisture  
Dew Point 72 °F    
Average Humidity 89    
Maximum Humidity 100    
Minimum Humidity 65    
Precipitation  
Precipitation 1.30 in - - ()
Sea Level Pressure  
Sea Level Pressure 29.82 in    
Wind  
Wind Speed 2 mph (SW)    
Max Wind Speed 14 mph    
Max Gust Speed 20 mph    
Visibility 5 miles    
Events Fog , Rain , Thunderstorm    
Averages and records for this station are not official NWS values.
T = Trace of Precipitation, MM = Missing Value Source: NWS Daily Summary

Daily Weather History Graph

Daily Weather History Graph

Search for Another Location

Airport or City:

Trip Planner

Search our weather history database for the weather conditions in past years. The results will help you decide how hot, cold, wet, or windy it might be!

Date:

Astronomy

Jul. 11, 2013 Rise Set
Actual Time 5:46 AM CDT 7:49 PM CDT
Civil Twilight 5:19 AM CDT 8:16 PM CDT
Nautical Twilight 4:45 AM CDT 8:50 PM CDT
Astronomical Twilight 4:09 AM CDT 9:26 PM CDT
Moon 8:49 AM CDT (7/11) 9:46 PM CDT (7/11)
Length of Visible Light 14h 57m
Length of Day
14h 02m
Waxing Crescent, 11% of the Moon is Illuminated
Jul 11
Waxing Crescent
Jul 15
First Quarter
Jul 22
Full
Jul 29
Last Quarter
Aug 6
New

Hourly Weather History & Observations

Time (CDT) Temp. Heat Index Dew Point Humidity Pressure Visibility Wind Dir Wind Speed Gust Speed Precip Events Conditions
12:00 AM 71.6 °F - 71.6 °F 100% 30.01 in 1.8 mi Calm Calm - N/A   Overcast
12:14 AM 71.6 °F - 71.6 °F 100% 30.01 in 3.0 mi Calm Calm - N/A   Overcast
12:50 AM 71.6 °F - 69.8 °F 94% 30.01 in 1.8 mi Calm Calm - N/A   Overcast
12:53 AM 72.0 °F - 70.0 °F 93% 29.68 in 1.5 mi Calm Calm - N/A   Overcast
1:07 AM 71.6 °F - 71.6 °F 100% 30.01 in 3.0 mi Calm Calm - N/A   Overcast
1:18 AM 71.6 °F - 71.6 °F 100% 30.01 in 2.5 mi Calm Calm - N/A   Overcast
1:50 AM 71.6 °F - 69.8 °F 94% 30.01 in 1.0 mi Calm Calm - N/A   Mist
1:53 AM 72.0 °F - 70.0 °F 93% 29.68 in 0.8 mi Calm Calm - N/A   Mist
2:53 AM 72.0 °F - 71.1 °F 97% 29.67 in 0.5 mi Calm Calm - N/A Fog Fog
3:03 AM 71.6 °F - 71.6 °F 100% 29.99 in 2.0 mi Calm Calm - N/A   Overcast
3:11 AM 71.6 °F - 71.6 °F 100% 29.99 in 6.0 mi Calm Calm - N/A   Overcast
3:33 AM 71.6 °F - 71.6 °F 100% 29.99 in 1.8 mi Calm Calm - N/A   Overcast
3:43 AM 71.6 °F - 69.8 °F 94% 29.99 in 3.0 mi Calm Calm - N/A   Overcast
3:50 AM 71.6 °F - 71.6 °F 100% 29.99 in 1.8 mi Calm Calm - N/A   Overcast
3:53 AM 72.0 °F - 71.1 °F 97% 29.66 in 1.0 mi Calm Calm - N/A   Overcast
4:00 AM 71.6 °F - 71.6 °F 100% 29.99 in 0.2 mi Calm Calm - N/A Fog Fog
4:53 AM 72.0 °F - 71.1 °F 97% 29.66 in 0.2 mi Calm Calm - N/A Fog Fog
5:53 AM 73.0 °F - 71.1 °F 93% 29.66 in 0.5 mi Calm Calm - N/A Fog Fog
6:53 AM 73.0 °F - 72.0 °F 96% 29.67 in 0.2 mi Calm Calm - N/A Fog Fog
7:53 AM 73.9 °F - 72.0 °F 93% 29.67 in 0.2 mi Calm Calm - N/A Fog Fog
8:13 AM 75.2 °F - 73.4 °F 94% 29.99 in 1.2 mi SSE 3.5 mph - N/A   Overcast
8:19 AM 75.2 °F - 73.4 °F 94% 29.99 in 3.0 mi Calm Calm - N/A   Overcast
8:53 AM 75.9 °F - 73.0 °F 91% 29.66 in 8.0 mi Calm Calm - N/A   Overcast
9:28 AM 78.8 °F - 73.4 °F 83% 29.98 in 9.0 mi SSE 3.5 mph - 0.00 in   Overcast
9:53 AM 79.0 °F - 73.9 °F 84% 29.64 in 8.0 mi SE 4.6 mph - 0.00 in   Overcast
10:26 AM 80.6 °F 86.2 °F 75.2 °F 84% 29.98 in 9.0 mi SSW 4.6 mph - N/A   Mostly Cloudy
10:34 AM 80.6 °F 86.2 °F 75.2 °F 84% 29.98 in 9.0 mi Variable 4.6 mph - N/A   Overcast
10:53 AM 81.0 °F 86.7 °F 75.0 °F 82% 29.65 in 8.0 mi South 5.8 mph - N/A Thunderstorm Mostly Cloudy
11:04 AM 80.6 °F 86.2 °F 75.2 °F 84% 29.98 in 8.0 mi Variable 3.5 mph - N/A Thunderstorm Thunderstorm
11:11 AM 78.8 °F - 73.4 °F 83% 29.99 in 2.5 mi SSW 10.4 mph 19.6 mph 0.09 in Rain , Thunderstorm Light Thunderstorms and Rain
11:13 AM 77.0 °F - 73.4 °F 89% 29.99 in 1.2 mi SSW 13.8 mph 19.6 mph 0.19 in Rain , Thunderstorm Heavy Thunderstorms and Rain
11:16 AM 75.2 °F - 73.4 °F 94% 29.98 in 0.5 mi SSW 10.4 mph 19.6 mph 0.35 in Fog , Rain , Thunderstorm Heavy Thunderstorms and Rain
11:40 AM 73.4 °F - 73.4 °F 100% 29.98 in 0.5 mi Variable 4.6 mph - 1.14 in Fog , Rain Heavy Rain
11:53 AM 75.0 °F - 72.0 °F 90% 29.65 in 1.0 mi WSW 3.5 mph - 1.24 in Rain Rain
12:06 PM 75.2 °F - 73.4 °F 94% 29.98 in 3.0 mi WSW 3.5 mph - 0.03 in Rain Rain
12:53 PM 75.9 °F - 73.9 °F 94% 29.65 in 8.0 mi SSW 8.1 mph - 0.06 in Rain Light Rain
1:27 PM 77.0 °F - 73.4 °F 89% 29.98 in 10.0 mi SW 6.9 mph - 0.00 in   Scattered Clouds
1:53 PM 78.1 °F - 73.0 °F 84% 29.65 in 10.0 mi SW 5.8 mph - 0.00 in   Scattered Clouds
2:10 PM 78.8 °F - 73.4 °F 83% 29.96 in 10.0 mi WSW 4.6 mph - N/A   Mostly Cloudy
2:51 PM 82.4 °F 88.2 °F 73.4 °F 74% 29.94 in 10.0 mi WSW 8.1 mph - N/A   Mostly Cloudy
2:53 PM 82.9 °F 89.4 °F 73.9 °F 74% 29.61 in 10.0 mi Variable 5.8 mph - N/A   Mostly Cloudy
3:14 PM 82.4 °F 87.2 °F 71.6 °F 70% 29.92 in 10.0 mi WSW 8.1 mph - N/A   Scattered Clouds
3:53 PM 82.0 °F 86.7 °F 72.0 °F 71% 29.58 in 10.0 mi WSW 4.6 mph - N/A   Clear
4:53 PM 84.9 °F 90.7 °F 72.0 °F 65% 29.58 in 10.0 mi Variable 3.5 mph - N/A   Partly Cloudy
5:53 PM 82.9 °F 88.8 °F 73.0 °F 72% 29.57 in 10.0 mi Calm Calm - N/A   Scattered Clouds
6:09 PM 82.4 °F 88.2 °F 73.4 °F 74% 29.90 in 10.0 mi Calm Calm - N/A   Mostly Cloudy
6:21 PM 82.4 °F 88.2 °F 73.4 °F 74% 29.89 in 10.0 mi West 5.8 mph - N/A   Mostly Cloudy
6:53 PM 81.0 °F 85.2 °F 72.0 °F 74% 29.56 in 10.0 mi West 3.5 mph - N/A   Overcast
7:53 PM 80.1 °F 84.2 °F 73.0 °F 79% 29.56 in 10.0 mi Calm Calm - N/A   Overcast
8:53 PM 77.0 °F - 72.0 °F 84% 29.59 in 10.0 mi Calm Calm - N/A   Clear
9:53 PM 77.0 °F - 73.0 °F 88% 29.60 in 10.0 mi Calm Calm - N/A   Clear
10:53 PM 75.9 °F - 73.0 °F 91% 29.60 in 10.0 mi WSW 3.5 mph - N/A   Clear
11:53 PM 75.9 °F - 73.0 °F 91% 29.60 in 10.0 mi Calm Calm - N/A   Partly Cloudy